Weather in Sakharovka

Russia / Republic of Tatarstan     55°18′37″N   50°17′24″E
temp.,
°C
wind,
m/s
gust,
m/s
humid.,
%
clouds,
%
prec.,
mm/h
press.,
hPa
HPBL,
m
6 march, sat
sat600:00−12wsw459519 0.0 100983
03:00−12sw479321 0.0 1010127
06:00−11wsw599596 0.2 1011229
09:00−10wnw589498 0.4 1013389
12:00−9wnw3592100 0.1 1014415
15:00−10wsw359286 0.1 1013210
18:00−14sw34910 0.0 101450
21:00−15sw34870 0.0 101337
7 march, sun
sun700:00−16wsw349139 0.0 101232
03:00−17sw339627 0.0 101221
06:00−18wsw239853 0.0 101120
09:00−15sw249660 0.0 1011117
12:00−11sw369392 0.1 1010291
15:00−9ssw489075 0.1 1008343
18:00−10s6139259 0.0 1005370
21:00−8ssw8159379 0.3 1003705
8 march, mon
mon800:00−7s91693100 0.9 998807
03:00−5ssw91594100 1.8 995880
06:00−8wsw51183100 0.9 995279
09:00−9sw5983100 0.9 997243
12:00−6sw61177100 0.0 998619
15:00−5sw61184100 0.0 998947
18:00−8sw499096 0.1 998190
21:00−10wsw5109354 0.1 999188
9 march, tue
tue900:00−11wsw5109449 0.0 1001254
03:00−12wnw5109574 0.3 1004309
06:00−15w599699 0.1 1007211
09:00−16wnw589595 0.1 1010277
12:00−14w479293 0.0 1012387
15:00−14w479195 0.0 1013412
18:00−18w349661 0.0 101443
21:00−19w349969 0.0 101639
10 march, wed
wed1000:00−21nw2310089 0.0 101620
03:00−23nnw2210082 0.1 101720
06:00−24nw239992 0.0 101720
09:00−23nnw369794 0.0 1018205
12:00−21nnw469485 0.0 1019313
15:00−20nnw479280 0.0 1019411
18:00−23nw349550 0.0 102051
21:00−26nw349425 0.0 102251